NOAA 16 DEB

Satellite information

Favourite Embed

Satellite Type and Status

DEBRISIN ORBIT

Key statistics

Satellite NOAA 16 DEB at a glance.

Uptime

8995

Days in orbit

Revolutions

≈ 14.2

Per day

Orbit

SSO

Sun Synchronous Orbit

Inclination

98.7

Latest

Satellite identification and parameters

Extended collection of information and parameters for NOAA 16 DEB.

Object identification

Identified? True

Debris? True

Object name: NOAA 16 DEB

International designator: 2000-055KF

Object number (NORAD): 41402

Object ID (CCSDS): 41402

Country: UNITED STATES OF AMERICA (US)

Current information (Y/N): Y

RCS size: SMALL

Orbital parameters

Period: 101.673 minutes

Inclination: 98.7042 deg

SMA: 7216.031 km

Apoapsis: 858.327 km

Periapsis: 817.464 km

RAAN: 158.9838 deg

Eccentricy: 0.0028314

Argument of periapsis: 338.9227 deg

Mean anomaly: 21.0778 deg

Mean motion: 14.16299777 rev/day

Mean motion (dot): 0.00003826 rev/day2

B* drag term: 0.0019428 1/REarth

Two-line elements (TLE)

Creation date: May 7, 2025, 3:14 a.m.

Reference frame: TEME

Reference center: EARTH

Epoch: May 6, 2025, 7:12 a.m. UTC

TLE line 0: 0 NOAA 16 DEB

TLE line 1: 1 41402U 00055KF 25126.30039232 .00003826 00000-0 19428-2 0 9994

TLE line 2: 2 41402 98.7042 158.9838 0028314 338.9227 21.0778 14.16299777474729

Live tracking on map

Real-time ground track for satellite NOAA 16 DEB.

In-orbit conjunctions

A list of the most updated potential collisions computed for object NOAA 16 DEB.

Target Orbit TCA Probability of collision Miss distance Type
SL-3 R/B LEO 2025-01-05 10:53:53 0.000147631 120.0 (m) ROCKET BODY
CZ-6A DEB LEO 2024-11-11 21:40:49 0.0001999622 940.0 (m) DEBRIS

Associated space launch

The NOAA K, L and M POES satellites begin the fifth generation of improved environmental monitoring in support of NOAA missions. The instrument payload has significant improvements and additions/deletions. The instrument changes have effected the spacecraft subsystems and data formats.

NOAA 16 DEB was lifted into orbit during the mission ‘Titan II SLV | NOAA 16’, on board a Titan II SLV space rocket.

The launch took place on Sept. 21, 2000, 10:22 a.m. from Space Launch Complex 4W.

For more information about the launch, click the button.

Launch to space Titan II SLV | NOAA 16
Titan II SLV | NOAA 16

Agency: N/A

Status: Launch Successful

Launch date: Sept. 21, 2000, 10:22 a.m. UTC

Rocket: Titan II SLV

Launch pad: Space Launch Complex 4W

Location: Vandenberg SFB, CA, USA

...

Latest news about this satellite

There are no fresh news available about this satellite. Check back as we update our databases every day.


Newsletter sign-up

Weekly statistics, charts and insights to help you stay on top of the space industry.